TimeEST,TemperatureF,Dew PointF,Humidity,Sea Level PressureIn,VisibilityMPH,Wind Direction,Wind SpeedMPH,Gust SpeedMPH,PrecipitationIn,Events,Conditions,WindDirDegrees,DateUTC
12:20 AM,40.3,30.6,68,30.02,10.0,NNW,3.5,-,N/A,,Clear,340,2013-01-02 05:20:00
12:40 AM,40.1,30.6,69,30.02,10.0,Calm,Calm,-,N/A,,Scattered Clouds,0,2013-01-02 05:40:00
1:00 AM,39.7,30.2,69,30.01,10.0,North,3.5,-,N/A,,Mostly Cloudy,350,2013-01-02 06:00:00
1:20 AM,39.7,29.1,66,30.02,10.0,North,6.9,-,N/A,,Overcast,360,2013-01-02 06:20:00
1:45 AM,39.6,28.8,65,30.03,10.0,North,4.6,-,N/A,,Overcast,360,2013-01-02 06:45:00
2:05 AM,39.2,27.7,63,30.03,10.0,North,5.8,-,N/A,,Overcast,350,2013-01-02 07:05:00
2:25 AM,38.8,27.7,64,30.03,10.0,NNE,5.8,-,N/A,,Overcast,20,2013-01-02 07:25:00
2:45 AM,38.5,27.5,65,30.03,10.0,North,5.8,-,N/A,,Overcast,360,2013-01-02 07:45:00
3:10 AM,38.1,26.6,63,30.04,10.0,NNW,5.8,-,N/A,,Overcast,340,2013-01-02 08:10:00
3:30 AM,37.8,25.2,60,30.03,10.0,NNE,4.6,-,N/A,,Overcast,20,2013-01-02 08:30:00
3:50 AM,37.4,25.3,62,30.03,10.0,NNE,3.5,-,N/A,,Overcast,20,2013-01-02 08:50:00
4:10 AM,37.4,25.2,61,30.03,10.0,NNE,3.5,-,N/A,,Overcast,20,2013-01-02 09:10:00
4:35 AM,37.0,25.0,62,30.04,10.0,North,4.6,-,N/A,,Overcast,350,2013-01-02 09:35:00
4:55 AM,36.9,25.0,62,30.04,10.0,North,3.5,-,N/A,,Overcast,360,2013-01-02 09:55:00
5:15 AM,36.9,25.3,63,30.04,10.0,North,4.6,-,N/A,,Mostly Cloudy,360,2013-01-02 10:15:00
6:20 AM,35.8,23.5,61,30.06,10.0,North,6.9,-,N/A,,Clear,10,2013-01-02 11:20:00
6:40 AM,35.2,23.5,62,30.07,10.0,NNW,5.8,-,N/A,,Clear,340,2013-01-02 11:40:00
7:00 AM,35.1,23.2,62,30.08,10.0,North,5.8,-,N/A,,Clear,360,2013-01-02 12:00:00
7:25 AM,34.7,23.2,63,30.09,10.0,North,4.6,-,N/A,,Clear,350,2013-01-02 12:25:00
7:45 AM,34.0,23.0,64,30.10,10.0,North,3.5,-,N/A,,Clear,350,2013-01-02 12:45:00
8:05 AM,33.8,23.2,65,30.11,10.0,NNW,4.6,-,N/A,,Clear,340,2013-01-02 13:05:00
8:25 AM,34.0,23.2,65,30.11,10.0,NNW,4.6,-,N/A,,Clear,330,2013-01-02 13:25:00
8:50 AM,35.1,23.0,61,30.11,10.0,NNW,4.6,-,N/A,,Clear,340,2013-01-02 13:50:00
9:10 AM,35.1,22.3,60,30.12,10.0,NNW,8.1,-,N/A,,Clear,340,2013-01-02 14:10:00
9:30 AM,36.0,22.1,57,30.14,10.0,North,5.8,-,N/A,,Clear,360,2013-01-02 14:30:00
9:50 AM,36.1,21.9,56,30.15,10.0,NW,6.9,-,N/A,,Clear,310,2013-01-02 14:50:00
10:15 AM,37.2,21.9,54,30.15,10.0,NNW,9.2,-,N/A,,Clear,330,2013-01-02 15:15:00
10:35 AM,37.9,22.1,53,30.15,10.0,NW,9.2,-,N/A,,Clear,320,2013-01-02 15:35:00
10:55 AM,39.0,21.4,49,30.14,10.0,NW,9.2,-,N/A,,Clear,310,2013-01-02 15:55:00
11:15 AM,38.7,19.4,46,30.14,10.0,West,10.4,17.3,N/A,,Clear,280,2013-01-02 16:15:00
11:40 AM,38.7,19.2,46,30.12,10.0,NW,8.1,18.4,N/A,,Clear,320,2013-01-02 16:40:00
12:00 PM,38.5,18.0,44,30.11,10.0,WNW,11.5,19.6,N/A,,Clear,300,2013-01-02 17:00:00
12:20 PM,38.5,18.3,44,30.11,10.0,WNW,12.7,-,N/A,,Clear,290,2013-01-02 17:20:00
12:40 PM,38.3,17.8,44,30.11,10.0,NNW,12.7,17.3,N/A,,Clear,330,2013-01-02 17:40:00
1:05 PM,38.5,18.1,44,30.11,10.0,NW,8.1,-,N/A,,Clear,320,2013-01-02 18:05:00
1:25 PM,38.8,17.8,43,30.11,10.0,NW,8.1,17.3,N/A,,Clear,310,2013-01-02 18:25:00
1:45 PM,38.8,17.6,42,30.11,10.0,NW,8.1,-,N/A,,Clear,320,2013-01-02 18:45:00
2:05 PM,39.0,16.7,40,30.12,10.0,NW,12.7,17.3,N/A,,Clear,320,2013-01-02 19:05:00
2:30 PM,39.2,17.2,41,30.12,10.0,WNW,8.1,-,N/A,,Clear,300,2013-01-02 19:30:00
2:50 PM,38.5,16.3,41,30.12,10.0,NNW,9.2,-,N/A,,Clear,330,2013-01-02 19:50:00
3:00 PM,39.2,17.1,41,30.12,10.0,WNW,9.2,-,N/A,,Clear,290,2013-01-02 20:00:00
3:30 PM,37.9,16.3,42,30.14,10.0,NW,6.9,-,N/A,,Clear,320,2013-01-02 20:30:00
3:55 PM,37.2,16.5,43,30.14,10.0,NNW,8.1,-,N/A,,Clear,340,2013-01-02 20:55:00
4:10 PM,36.5,16.9,45,30.15,10.0,NW,4.6,-,N/A,,Clear,320,2013-01-02 21:10:00
4:35 PM,36.5,16.7,45,30.16,10.0,NW,5.8,-,N/A,,Clear,310,2013-01-02 21:35:00
6:20 PM,32.2,18.9,58,30.20,10.0,Calm,Calm,-,N/A,,Clear,0,2013-01-02 23:20:00
6:45 PM,31.1,20.7,65,30.20,10.0,Calm,Calm,-,N/A,,Clear,0,2013-01-02 23:45:00
7:05 PM,29.3,23.0,77,30.20,10.0,Calm,Calm,-,N/A,,Clear,0,2013-01-03 00:05:00
7:25 PM,30.2,21.6,70,30.20,10.0,Calm,Calm,-,N/A,,Clear,0,2013-01-03 00:25:00
7:45 PM,29.8,21.9,72,30.21,10.0,Calm,Calm,-,N/A,,Clear,0,2013-01-03 00:45:00
8:10 PM,29.8,22.3,73,30.20,10.0,Calm,Calm,-,N/A,,Clear,0,2013-01-03 01:10:00
8:30 PM,30.9,22.1,70,30.20,10.0,Calm,Calm,-,N/A,,Clear,0,2013-01-03 01:30:00
8:50 PM,29.8,21.4,71,30.21,10.0,Calm,Calm,-,N/A,,Clear,0,2013-01-03 01:50:00
9:10 PM,29.7,22.1,73,30.21,10.0,Calm,Calm,-,N/A,,Clear,0,2013-01-03 02:10:00
9:35 PM,29.3,23.4,78,30.22,10.0,Calm,Calm,-,N/A,,Clear,0,2013-01-03 02:35:00
9:55 PM,29.3,22.6,76,30.23,10.0,Calm,Calm,-,N/A,,Clear,0,2013-01-03 02:55:00
10:15 PM,29.3,23.0,77,30.25,10.0,Calm,Calm,-,N/A,,Clear,0,2013-01-03 03:15:00
10:35 PM,28.9,23.7,81,30.24,10.0,Calm,Calm,-,N/A,,Clear,0,2013-01-03 03:35:00
11:00 PM,29.1,22.8,77,30.25,10.0,Calm,Calm,-,N/A,,Clear,0,2013-01-03 04:00:00
11:20 PM,28.0,23.0,81,30.25,10.0,Calm,Calm,-,N/A,,Clear,0,2013-01-03 04:20:00
11:40 PM,28.2,23.0,81,30.23,10.0,Calm,Calm,-,N/A,,Clear,0,2013-01-03 04:40:00